User: anonymous   Login
Location: Montr�al
(45.5000°N, 73.5830°W)
Time: 07:56:39
(UTC-04:00)
Language:

Cosmos 2369 - Orbit

View from above orbital plane
View from above orbital plane
View from above satellite
View from above satellite

Ground track
Ground track

The orbit data is extracted from the following two-line orbital elements,

1 26069U 00006A   15085.88261425 -.00000087  00000-0 -21115-4 0  9995
2 26069 070.9959 262.7575 0011023 009.5866 091.5327 14.13296547781217
Epoch (UTC): 26 March 2015 21:10:57
Eccentricity: 0.0011023
inclination: 70.9959°
perigee height: 840 km
apogee height: 856 km
right ascension of ascending node: 262.7575°
argument of perigee: 9.5866°
revolutions per day: 14.13296547
mean anomaly at epoch: 91.5327°
orbit number at epoch: 78121

The dashed part of the orbit path shows where the satellite is in the earth's shadow,  

DLR